User: anonymous   Login
Location: Le Vaud
(46.4779°N, 6.2346°E)
Time: 21:53:38
(UTC+00:00)
Language:

NOSS 2-1 (E) - Orbit

View from above orbital plane
View from above orbital plane
View from above satellite
View from above satellite

Ground track
Ground track

The orbit data is extracted from the following two-line orbital elements,

1 20642U 90050E   20113.84703531 0.00000400  00000-0  62656-4 0    02
2 20642  63.3222  14.5305 0870712  42.9446 317.0553 13.42006299    06
Epoch (UTC): 22 April 2020 20:19:43
Eccentricity: 0.0870712
inclination: 63.3222°
perigee height: 450 km
apogee height: 1753 km
right ascension of ascending node: 14.5305°
argument of perigee: 42.9446°
revolutions per day: 13.42006299
mean anomaly at epoch: 317.0553°
orbit number at epoch: 0

The dashed part of the orbit path shows where the satellite is in the earth's shadow,  

DLR